1505152801.18,39913,16.5,73424.3,7.07,6.29,6.29,0,*7C
1505152802.39,39914,16.5,73426.3,7.07,6.25,6.25,0,*7B
1505152803.61,39915,16.5,73430.0,7.09,6.17,6.17,0,*74
1505152804.84,39916,16.56,73436.8,7.09,6.17,6.17,0,*77
1505152806.07,39917,16.5,73432.3,7.07,6.17,6.25,0,*79
1505152807.29,39918,16.5,73430.3,7.07,6.07,6.13,0,*72
1505152808.5,39919,16.5,73426.5,7.07,6.25,6.25,0,*76
1505152809.74,39920,16.5,73424.3,7.07,6.29,6.35,0,*71
1505152810.95,39921,16.5,73422.8,7.09,6.29,6.35,0,*7E
1505152812.16,39922,16.5,73426.8,7.07,6.29,6.29,0,*7E
1505152813.39,39923,16.56,73430.3,7.09,6.35,6.35,0,*71
1505152814.6,39924,16.56,73426.5,7.09,6.25,6.35,0,*77
1505152815.81,39925,16.5,73414.3,7.07,6.25,6.29,0,*75
1505152817.06,39926,16.5,73420.3,7.07,6.13,6.13,0,*7A
1505152818.28,39927,16.56,73420.8,7.07,5.95,6.03,0,*77
1505152819.47,39928,16.5,73412.8,7.07,6.07,6.07,0,*74
1505152820.68,39929,16.5,73410.0,7.11,5.99,5.99,0,*72
1505152821.86,39930,16.56,73420.0,7.09,5.95,6.03,0,*7F
1505152823.09,39931,16.5,73408.5,7.09,5.85,5.85,0,*72
1505152824.27,39932,16.5,73414.5,7.09,5.95,6.03,0,*7D
1505152825.53,39933,16.56,73412.5,7.07,5.93,5.85,0,*79
1505152826.76,39934,16.5,73412.5,7.07,5.93,6.03,0,*73
1505152827.94,39935,16.5,73406.5,7.09,5.95,5.95,0,*76
1505152829.16,39936,16.5,73400.3,7.07,6.03,6.03,0,*7B
1505152830.41,39937,16.5,73396.0,7.07,5.85,5.85,0,*7A
1505152831.62,39938,16.5,73396.8,7.07,5.95,6.03,0,*79
1505152832.82,39939,16.5,73402.0,7.09,6.07,6.13,0,*7F
1505152834.04,39940,16.5,73410.0,7.07,6.07,6.13,0,*7F
1505152835.29,39941,16.5,73414.5,7.07,6.13,6.17,0,*7F
1505152836.52,39942,16.56,73418.0,7.07,6.07,6.13,0,*7D
1505152837.74,39943,16.56,73420.3,7.07,6.07,6.13,0,*7C
1505152838.95,39944,16.5,73420.3,7.07,6.25,6.25,0,*7E
1505152840.18,39945,16.5,73416.8,7.09,6.17,6.17,0,*71
1505152841.38,39946,16.5,73416.0,7.09,6.17,6.25,0,*73
1505152842.58,39947,16.5,73412.8,7.09,6.25,6.13,0,*76
1505152843.81,39948,16.5,73414.0,7.09,6.13,6.13,0,*7C
1505152845.01,39949,16.5,73416.3,7.07,6.07,6.07,0,*73
1505152846.23,39950,16.5,73414.3,7.09,6.13,6.17,0,*71
1505152847.44,39951,16.5,73408.8,7.09,6.25,6.17,0,*75
1505152848.69,39952,16.5,73412.5,7.07,6.17,6.17,0,*79
1505152849.92,39953,16.5,73414.8,7.07,6.07,6.13,0,*7D
1505152851.17,39954,16.5,73416.3,7.07,6.13,6.17,0,*7B
1505152852.4,39955,16.5,73420.0,7.09,6.13,6.17,0,*74
1505152853.57,39956,16.5,73408.3,7.09,6.07,6.07,0,*73
1505152854.83,39957,16.5,73408.5,7.07,6.13,6.17,0,*78
1505152856.03,39958,16.5,73412.0,7.07,6.07,6.07,0,*73
1505152857.23,39959,16.5,73414.0,7.07,6.07,6.07,0,*72
1505152858.48,39960,16.5,73418.5,7.07,6.13,6.13,0,*78
1505152859.65,39961,16.5,73422.3,7.09,6.07,6.07,0,*77
1505152860.87,39962,16.5,73418.3,7.07,6.03,6.03,0,*7A
1505152862.09,39963,16.5,73420.3,7.09,6.13,6.13,0,*75
1505152863.35,39964,16.5,73416.5,7.07,6.13,6.17,0,*78
1505152864.53,39965,16.5,73418.0,7.09,6.25,6.25,0,*73
1505152865.77,39966,16.5,73414.8,7.07,6.25,6.17,0,*7F
1505152866.99,39967,16.5,73410.3,7.09,6.17,6.17,0,*71
1505152868.19,39968,16.5,73404.3,7.07,6.07,6.07,0,*70
1505152869.44,39969,16.5,73404.3,7.07,6.17,6.17,0,*71
1505152870.7,39970,16.5,73402.8,7.07,6.13,6.13,0,*79
1505152871.92,39971,16.5,73408.5,7.07,6.13,6.07,0,*7D
1505152873.12,39972,16.56,73416.3,7.07,6.07,6.07,0,*7B
1505152874.32,39973,16.56,73416.8,7.07,6.07,6.07,0,*7A
1505152875.58,39974,16.56,73416.8,7.07,6.13,6.13,0,*7D
1505152876.78,39975,16.56,73418.0,7.09,6.13,6.25,0,*77
1505152877.99,39976,16.5,73412.0,7.07,6.25,6.29,0,*73
1505152879.22,39977,16.5,73418.8,7.07,6.35,6.29,0,*73
1505152880.46,39978,16.5,73416.5,7.09,6.35,6.35,0,*7F
1505152881.64,39979,16.5,73422.3,7.09,6.25,6.29,0,*72
1505152882.85,39980,16.5,73420.3,7.09,6.35,6.29,0,*75
1505152884.08,39981,16.5,73418.3,7.07,6.29,6.35,0,*7A
1505152885.29,39982,16.5,73420.0,7.09,6.25,6.17,0,*7B
1505152886.52,39983,16.5,73424.3,7.09,6.17,6.17,0,*7B
1505152887.72,39984,16.56,73428.8,7.11,5.99,5.99,0,*75
1505152888.9,39985,16.5,73418.8,7.09,6.03,6.07,0,*79
1505152890.13,39986,16.5,73410.5,7.09,6.13,6.13,0,*7E
1505152891.38,39987,16.5,73400.5,7.07,6.17,6.17,0,*71
1505152892.61,39988,16.56,73394.8,7.09,6.17,6.17,0,*70
1505152893.81,39989,16.5,73386.3,7.11,5.99,5.99,0,*78
1505152895.03,39990,16.5,73384.5,7.09,5.73,5.73,0,*79
1505152896.26,39991,16.56,73404.0,7.09,5.81,5.81,0,*78
1505152897.51,39992,16.5,73406.3,7.07,5.85,5.85,0,*75
1505152898.74,39993,16.56,73404.3,7.05,5.89,5.81,0,*7E
1505152899.95,39994,16.5,73402.3,7.09,5.93,5.95,0,*7B
1505152901.18,39995,16.5,73402.3,7.09,5.93,5.93,0,*7C
1505152902.38,39996,16.5,73402.0,7.09,5.93,5.95,0,*79
1505152903.64,39997,16.56,73404.0,7.07,5.93,5.93,0,*70
1505152904.87,39998,16.56,73408.8,7.05,5.89,5.81,0,*75
1505152906.12,39999,16.5,73404.5,7.07,5.85,5.93,0,*79
1505152907.33,40000,16.56,73402.5,7.07,5.95,6.03,0,*75
1505152908.58,40001,16.5,73404.0,7.07,6.13,6.13,0,*78
1505152909.84,40002,16.56,73412.5,7.07,6.17,6.17,0,*7B
1505152911.09,40003,16.5,73402.5,7.07,6.17,6.17,0,*7A
1505152912.34,40004,16.5,73404.8,7.07,6.13,6.13,0,*7D
1505152913.6,40005,16.5,73396.0,7.07,6.13,6.13,0,*7C
1505152914.82,40006,16.56,73398.3,7.07,6.07,6.17,0,*7E
1505152916.05,40007,16.5,73398.5,7.09,6.13,6.17,0,*74
1505152917.27,40008,16.56,73402.8,7.07,6.07,6.13,0,*74
1505152918.47,40009,16.5,73402.3,7.07,6.07,6.07,0,*70
1505152919.68,40010,16.5,73408.8,7.07,5.95,6.03,0,*74
1505152920.92,40011,16.5,73406.5,7.07,5.93,6.03,0,*73
1505152922.14,40012,16.5,73402.3,7.07,6.07,6.13,0,*7F
1505152923.4,40013,16.5,73410.5,7.07,6.13,6.13,0,*7B
1505152924.65,40014,16.5,73418.8,7.07,6.13,6.13,0,*7C
1505152925.86,40015,16.5,73418.0,7.07,6.25,6.25,0,*7D
1505152927.11,40016,16.56,73418.5,7.07,6.13,6.17,0,*7A
1505152928.37,40017,16.5,73414.5,7.07,6.17,6.17,0,*7F
1505152929.62,40018,16.56,73416.0,7.07,6.17,6.13,0,*74
1505152930.87,40019,16.5,73414.0,7.07,6.13,6.17,0,*75
1505152932.07,40020,16.5,73412.3,7.05,6.11,6.13,0,*7B
1505152933.26,40021,16.5,73416.3,7.09,6.25,6.25,0,*74
1505152934.44,40022,16.5,73412.5,7.09,6.25,6.29,0,*7B
1505152935.65,40023,16.5,73420.5,7.09,6.29,6.35,0,*7B
1505152936.87,40024,16.5,73420.8,7.07,6.17,6.25,0,*7E
1505152938.07,40025,16.5,73416.0,7.07,6.07,6.07,0,*7E
1505152939.27,40026,16.5,73420.8,7.07,6.07,6.07,0,*7D
1505152940.53,40027,16.5,73422.8,7.07,6.13,6.17,0,*78
1505152941.78,40028,16.5,73416.3,7.07,6.13,6.13,0,*73
1505152943.01,40029,16.5,73416.3,7.09,6.17,6.17,0,*7C
1505152944.22,40030,16.5,73418.3,7.07,6.25,6.25,0,*7A
1505152945.42,40031,16.5,73416.0,7.09,6.17,6.07,0,*74
1505152946.64,40032,16.5,73416.5,7.09,5.81,5.73,0,*7B
1505152947.86,40033,16.5,73396.8,7.09,5.73,5.85,0,*7E
1505152949.04,40034,16.5,73392.3,7.09,5.95,5.95,0,*70
1505152950.25,40035,16.5,73390.0,7.07,5.95,6.03,0,*73
1505152951.49,40036,16.5,73398.0,7.07,5.93,5.95,0,*7A
1505152952.68,40037,16.5,73404.5,7.07,6.07,6.07,0,*7D
1505152953.88,40038,16.5,73408.5,7.09,6.07,6.13,0,*79
1505152955.13,40039,16.5,73418.8,7.07,6.13,6.13,0,*73
1505152956.33,40040,16.5,73416.0,7.07,6.07,6.07,0,*7D
1505152957.59,40041,16.56,73420.8,7.07,6.17,6.17,0,*7C
1505152958.81,40042,16.5,73420.0,7.07,6.07,6.17,0,*7E
1505152960.02,40043,16.5,73414.8,7.07,5.95,5.95,0,*7E
1505152961.27,40044,16.5,73412.3,7.07,5.93,5.93,0,*79
1505152962.48,40045,16.5,73410.5,7.07,5.95,6.03,0,*74
1505152963.71,40046,16.5,73412.8,7.07,6.07,6.13,0,*7E
1505152964.91,40047,16.5,73416.5,7.07,6.07,6.03,0,*7E
1505152966.17,40048,16.5,73422.8,7.07,6.17,6.17,0,*75
1505152967.39,40049,16.5,73424.5,7.07,6.17,6.25,0,*75
1505152968.62,40050,16.5,73426.5,7.09,6.17,6.17,0,*72
1505152969.82,40051,16.5,73430.3,7.09,6.07,6.13,0,*76
1505152971.04,40052,16.5,73432.8,7.07,6.07,6.13,0,*7B
1505152972.22,40053,16.5,73432.8,7.05,6.11,6.21,0,*7E
1505152973.47,40054,16.5,73428.8,7.07,6.17,6.17,0,*78
1505152974.68,40055,16.5,73428.0,7.07,6.25,6.25,0,*79
1505152975.89,40056,16.56,73420.8,7.09,6.29,6.35,0,*79
1505152977.07,40057,16.5,73414.0,7.09,6.29,6.29,0,*75
1505152978.28,40058,16.5,73414.0,7.07,6.25,6.25,0,*74
1505152979.54,40059,16.5,73422.8,7.07,6.13,6.17,0,*71
1505152980.72,40060,16.5,73424.8,7.05,6.03,6.11,0,*7E
1505152981.97,40061,16.5,73424.8,7.07,6.13,6.13,0,*7E
1505152983.18,40062,16.5,73428.3,7.09,6.25,6.17,0,*72
1505152984.39,40063,16.5,73422.8,7.07,6.25,6.25,0,*7C
1505152985.62,40064,16.56,73422.3,7.09,6.13,6.17,0,*71
1505152986.84,40065,16.5,73412.5,7.07,6.07,6.13,0,*7F
1505152988.07,40066,16.5,73408.0,7.07,6.07,6.13,0,*7C
1505152989.29,40067,16.5,73410.3,7.09,6.13,6.17,0,*72
1505152990.55,40068,16.5,73412.3,7.07,6.17,6.17,0,*77
1505152991.78,40069,16.5,73410.8,7.09,6.13,6.17,0,*7C
1505152992.97,40070,16.5,73408.8,7.09,6.07,6.13,0,*75
1505152994.17,40071,16.5,73404.0,7.07,6.07,6.07,0,*7F
1505152995.37,40072,16.5,73402.3,7.07,6.07,6.07,0,*7C
1505152996.59,40073,16.5,73400.5,7.07,6.03,6.03,0,*7D
1505152997.78,40074,16.5,73396.0,7.07,6.07,6.07,0,*7A
1505152999.04,40075,16.5,73404.3,7.07,6.13,6.13,0,*7B
1505153000.24,40076,16.5,73404.3,7.07,5.95,5.95,0,*78
1505153001.48,40077,16.5,73412.3,7.07,5.93,5.95,0,*7F
1505153002.73,40078,16.5,73412.8,7.07,5.85,5.73,0,*7F
1505153003.98,40079,16.5,73418.0,7.07,5.73,5.85,0,*7E
1505153005.23,40080,16.56,73406.8,7.07,5.81,5.81,0,*71
1505153006.44,40081,16.5,73408.3,7.05,5.93,6.03,0,*78
1505153007.62,40082,16.5,73416.3,7.05,6.11,6.11,0,*71
1505153008.82,40083,16.5,73418.8,7.05,6.11,6.13,0,*72
1505153010.0,40084,16.5,73412.3,7.05,6.21,6.21,0,*77
1505153011.24,40085,16.5,73410.3,7.07,6.25,6.35,0,*75
1505153012.45,40086,16.5,73412.5,7.07,6.29,6.29,0,*77
1505153013.71,40087,16.5,73412.5,7.07,6.35,6.35,0,*76
1505153014.94,40088,16.5,73406.0,7.07,6.17,6.25,0,*78
1505153016.17,40089,16.5,73408.8,7.07,6.13,6.07,0,*7D
1505153017.39,40090,16.5,73406.5,7.07,6.07,6.13,0,*75
1505153018.65,40091,16.5,73410.3,7.07,6.13,6.13,0,*71
1505153019.88,40092,16.5,73408.0,7.07,5.95,5.93,0,*74
1505153021.08,40093,16.5,73408.3,7.07,5.95,5.95,0,*73
1505153022.31,40094,16.5,73404.5,7.09,5.93,5.93,0,*7A
1505153023.54,40095,16.5,73414.0,7.07,6.03,6.13,0,*74
1505153024.74,40096,16.5,73412.5,7.07,6.07,6.07,0,*76
1505153025.95,40097,16.5,73410.3,7.07,6.03,6.07,0,*73
1505153027.2,40098,16.5,73410.5,7.07,6.13,6.13,0,*78
1505153028.46,40099,16.5,73418.0,7.07,6.17,6.17,0,*79
1505153029.71,40100,16.5,73416.8,7.07,6.13,6.17,0,*7C
1505153030.95,40101,16.5,73416.3,7.07,6.13,6.25,0,*7C
1505153032.14,40102,16.5,73418.0,7.09,6.07,6.17,0,*75
1505153033.34,40103,16.56,73420.8,7.07,6.07,6.07,0,*7B
1505153034.56,40104,16.5,73414.3,7.07,6.07,6.13,0,*79
1505153035.79,40105,16.5,73408.5,7.07,6.07,6.13,0,*78
1505153036.99,40106,16.5,73410.8,7.07,6.07,6.07,0,*7E
1505153038.21,40107,16.5,73410.5,7.07,6.07,6.13,0,*7A
1505153039.46,40108,16.5,73412.0,7.07,6.13,6.17,0,*74
1505153040.66,40109,16.5,73418.8,7.07,6.07,6.07,0,*71
1505153041.89,40110,16.5,73426.5,7.09,6.17,6.13,0,*73
1505153043.14,40111,16.5,73426.0,7.07,6.13,6.17,0,*7C
1505153044.39,40112,16.5,73422.0,7.07,6.13,6.13,0,*7B
1505153045.65,40113,16.5,73416.5,7.07,6.13,6.13,0,*7A
1505153046.85,40114,16.56,73412.5,7.07,6.07,5.95,0,*75
1505153048.08,40115,16.5,73406.3,7.07,6.13,6.07,0,*79
1505153049.28,40116,16.5,73402.3,7.07,6.07,5.95,0,*77
1505153050.49,40117,16.5,73396.5,7.07,5.95,5.95,0,*7E
1505153051.7,40118,16.5,73402.8,7.07,5.95,6.03,0,*7D
1505153052.88,40119,16.5,73396.5,7.09,5.95,5.95,0,*7E
1505153054.07,40120,16.5,73396.3,7.09,6.03,6.03,0,*74
1505153055.3,40121,16.5,73408.5,7.05,5.93,5.93,0,*79
1505153056.55,40122,16.56,73414.8,7.07,5.85,5.85,0,*78
1505153057.75,40123,16.5,73418.8,7.05,5.99,5.93,0,*71
1505153058.93,40124,16.56,73418.5,7.05,6.11,6.11,0,*7C
1505153060.11,40125,16.56,73412.8,7.05,6.21,6.21,0,*7D
1505153061.3,40126,16.5,73414.0,7.05,6.21,6.21,0,*7E
1505153062.52,40127,16.5,73414.8,7.05,6.13,6.13,0,*7F
1505153063.75,40128,16.5,73416.5,7.05,6.13,6.13,0,*70
1505153064.93,40129,16.5,73416.3,7.05,6.25,6.25,0,*71
1505153066.14,40130,16.5,73422.5,7.05,6.25,6.13,0,*7C
1505153067.32,40131,16.56,73426.5,7.05,6.21,6.25,0,*7C
1505153068.53,40132,16.5,73424.5,7.07,6.25,6.29,0,*75
1505153069.76,40133,16.5,73428.8,7.07,6.17,6.25,0,*79
1505153070.97,40134,16.56,73426.8,7.07,6.03,6.07,0,*7B
1505153072.18,40135,16.56,73420.8,7.07,6.03,6.03,0,*7E
1505153073.44,40136,16.5,73422.3,7.07,6.13,6.13,0,*7D
1505153074.66,40137,16.56,73418.0,7.09,6.17,6.17,0,*72
1505153075.87,40138,16.5,73412.5,7.07,6.25,6.25,0,*73
1505153077.08,40139,16.5,73412.8,7.07,6.25,6.25,0,*72
1505153078.31,40140,16.5,73412.8,7.07,6.17,6.25,0,*7D
1505153079.52,40141,16.56,73416.3,7.07,6.25,6.25,0,*7D
1505153080.75,40142,16.5,73418.3,7.07,6.17,6.25,0,*7F
1505153081.96,40143,16.5,73412.3,7.07,6.25,6.25,0,*7F
1505153083.19,40144,16.56,73414.8,7.07,6.07,6.13,0,*7D
1505153084.38,40145,16.5,73406.0,7.07,6.07,6.07,0,*79
1505153085.64,40146,16.56,73410.8,7.07,6.17,6.17,0,*7A
1505153086.87,40147,16.56,73412.5,7.07,6.17,6.25,0,*7A
1505153088.12,40148,16.5,73406.8,7.07,6.17,6.17,0,*74
1505153089.32,40149,16.5,73404.3,7.07,6.07,6.07,0,*75
1505153090.55,40150,16.5,73400.0,7.07,5.95,5.93,0,*7B
1505153091.8,40151,16.5,73400.0,7.07,5.85,5.81,0,*78
1505153093.03,40152,16.56,73400.8,7.09,5.93,5.93,0,*71
1505153094.26,40153,16.5,73402.3,7.07,5.93,5.95,0,*78
1505153095.48,40154,16.5,73404.0,7.07,6.03,6.03,0,*79
1505153096.69,40155,16.5,73402.0,7.05,5.93,5.99,0,*70
1505153097.95,40156,16.5,73394.0,7.07,5.93,5.93,0,*7B
1505153099.2,40157,16.5,73394.5,7.07,5.93,5.93,0,*7A
1505153100.43,40158,16.5,73416.5,7.07,6.17,6.07,0,*74
1505153101.66,40159,16.5,73412.8,7.05,6.13,6.13,0,*76
1505153102.86,40160,16.56,73408.0,7.05,6.21,6.13,0,*7D
1505153104.06,40161,16.5,73404.0,7.05,6.11,6.13,0,*7F
1505153105.27,40162,16.5,73396.5,7.03,6.11,6.11,0,*78
1505153106.49,40163,16.5,73396.5,7.05,6.13,6.13,0,*7F
1505153107.7,40164,16.56,73396.8,7.05,6.13,6.11,0,*7A
1505153108.93,40165,16.5,73392.0,7.05,5.89,5.89,0,*79
1505153110.1,40166,16.5,73394.0,7.05,5.71,5.71,0,*7A
1505153111.29,40167,16.5,73388.0,7.05,5.67,5.67,0,*7B
1505153112.52,40168,16.5,73400.5,7.05,5.89,5.89,0,*74
1505153113.71,40169,16.5,73412.8,7.05,6.03,6.03,0,*75
1505153114.9,40170,16.5,73410.3,7.05,6.03,6.03,0,*7D
1505153116.15,40171,16.5,73406.5,7.03,5.81,5.93,0,*79
1505153117.4,40172,16.5,73400.3,7.03,5.93,5.93,0,*79
1505153118.65,40173,16.56,73402.3,7.03,5.81,5.89,0,*70
1505153119.87,40174,16.56,73404.5,7.05,5.77,5.77,0,*79
1505153121.12,40175,16.5,73402.3,7.03,5.81,5.81,0,*7E
1505153122.35,40176,16.5,73402.0,7.05,5.89,5.89,0,*7B
1505153123.54,40177,16.5,73410.5,7.05,6.03,5.99,0,*7A
1505153124.72,40178,16.5,73416.0,7.05,6.11,6.11,0,*75
1505153125.92,40179,16.5,73416.0,7.05,6.21,6.13,0,*75
1505153127.15,40180,16.5,73416.5,7.05,6.13,6.13,0,*72
1505153128.4,40181,16.5,73420.0,7.03,6.13,6.13,0,*75
1505153129.58,40182,16.5,73426.0,7.05,6.11,6.03,0,*73
1505153130.78,40183,16.5,73416.5,7.05,6.11,6.13,0,*73
1505153131.99,40184,16.5,73422.8,7.05,6.03,6.13,0,*77
1505153133.22,40185,16.5,73422.8,7.05,6.13,6.13,0,*77
1505153134.44,40186,16.5,73422.8,7.05,6.13,6.13,0,*74
1505153135.7,40187,16.5,73424.0,7.07,6.13,6.17,0,*73
1505153136.89,40188,16.5,73426.3,7.05,6.03,6.03,0,*7A
1505153138.07,40189,16.5,73434.5,7.05,6.11,6.11,0,*7B
1505153139.27,40190,16.5,73430.3,7.05,6.13,6.21,0,*72
1505153140.45,40191,16.5,73430.5,7.05,6.21,6.21,0,*72
1505153141.68,40192,16.5,73420.5,7.05,6.13,6.13,0,*71
1505153142.88,40193,16.5,73422.8,7.05,6.11,6.13,0,*72
1505153144.13,40194,16.56,73420.8,7.07,6.13,6.13,0,*75
1505153145.34,40195,16.5,73410.8,7.07,6.07,6.03,0,*70
1505153146.56,40196,16.5,73406.3,7.05,5.81,5.81,0,*75
1505153147.82,40197,16.5,73400.0,7.07,5.73,5.81,0,*7B
1505153149.01,40198,16.5,73398.5,7.05,5.71,5.77,0,*7D
1505153150.23,40199,16.5,73402.3,7.05,5.77,5.81,0,*73
1505153151.41,40200,16.5,73398.8,7.05,5.67,5.71,0,*7E
1505153152.61,40201,16.5,73400.3,7.05,5.71,5.77,0,*7E
1505153153.78,40202,16.5,73410.3,7.05,5.71,5.71,0,*7B
1505153155.03,40203,16.5,73420.3,7.03,5.77,5.77,0,*7C
1505153156.2,40204,16.5,73422.5,7.05,5.71,5.71,0,*7D
1505153157.42,40205,16.5,73428.8,7.05,5.77,5.77,0,*7C
1505153158.65,40206,16.5,73428.0,7.03,5.89,5.99,0,*78
1505153159.91,40207,16.5,73434.5,7.03,5.93,5.93,0,*78
1505153161.15,40208,16.56,73432.5,7.07,5.93,6.03,0,*79
1505153162.36,40209,16.5,73436.3,7.05,5.93,6.03,0,*7A
1505153163.55,40210,16.5,73432.8,7.05,6.03,6.03,0,*78
1505153164.77,40211,16.5,73432.3,7.05,5.77,5.81,0,*70
1505153165.99,40212,16.5,73430.0,7.05,5.81,5.89,0,*72
1505153167.21,40213,16.5,73426.3,7.07,6.07,6.13,0,*7C
1505153168.39,40214,16.5,73422.5,7.05,6.11,6.11,0,*7C
1505153169.58,40215,16.5,73416.0,7.05,6.03,6.11,0,*7E
1505153170.76,40216,16.5,73418.0,7.05,5.99,6.03,0,*7E
1505153171.99,40217,16.5,73406.5,7.07,5.63,5.73,0,*7C
1505153173.21,40218,16.5,73406.3,7.05,5.55,5.55,0,*70
1505153174.42,40219,16.5,73390.3,7.03,5.67,5.67,0,*77
1505153175.64,40220,16.5,73402.5,7.05,5.77,5.81,0,*72
1505153176.86,40221,16.5,73412.0,7.05,5.81,5.81,0,*7A
1505153178.11,40222,16.5,73414.8,7.03,5.81,5.89,0,*77
1505153179.34,40223,16.5,73412.0,7.05,5.93,5.93,0,*78
1505153180.6,40224,16.5,73412.3,7.03,5.93,5.93,0,*79
1505153181.78,40225,16.5,73418.0,7.05,5.99,5.99,0,*7E
1505153182.99,40226,16.5,73418.5,7.03,6.11,6.03,0,*78
1505153184.2,40227,16.56,73416.0,7.03,6.03,6.11,0,*79
1505153185.41,40228,16.5,73418.5,7.03,6.11,6.11,0,*75
1505153186.62,40229,16.5,73420.0,7.03,6.21,6.21,0,*74
1505153187.81,40230,16.5,73416.0,7.05,6.03,6.03,0,*7A
1505153189.04,40231,16.5,73416.0,7.05,5.89,5.89,0,*7B
1505153190.25,40232,16.56,73412.5,7.03,6.11,6.03,0,*7D
1505153191.43,40233,16.5,73408.0,7.05,6.11,6.11,0,*79
1505153192.65,40234,16.5,73406.3,7.05,6.13,6.13,0,*7E
1505153193.83,40235,16.56,73404.8,7.05,6.11,6.11,0,*7F
1505153195.04,40236,16.56,73406.8,7.03,6.11,6.11,0,*7A
1505153196.25,40237,16.5,73400.3,7.03,6.03,6.11,0,*78
1505153197.46,40238,16.56,73404.8,7.03,6.03,5.99,0,*74
1505153198.69,40239,16.5,73402.8,7.03,5.99,5.93,0,*7F
1505153199.92,40240,16.5,73402.5,7.05,5.89,5.93,0,*76
1505153201.15,40241,16.5,73392.5,7.05,5.89,5.93,0,*77
1505153202.36,40242,16.5,73384.5,7.05,5.99,5.93,0,*75
1505153203.56,40243,16.5,73390.8,7.03,5.99,5.99,0,*78
1505153204.78,40244,16.5,73390.0,7.03,6.03,6.11,0,*7C
1505153205.98,40245,16.5,73394.3,7.05,6.13,6.11,0,*7A
1505153207.21,40246,16.5,73402.8,7.05,6.13,6.13,0,*7B
1505153208.39,40247,16.5,73402.0,7.05,6.11,6.03,0,*79
1505153209.6,40248,16.56,73404.8,7.03,6.03,6.11,0,*70
1505153210.78,40249,16.5,73402.3,7.05,6.11,6.11,0,*74
1505153212.0,40250,16.5,73402.8,7.03,6.03,6.03,0,*7A
1505153213.19,40251,16.5,73396.3,7.05,6.03,5.99,0,*7D
1505153214.4,40252,16.5,73392.8,7.03,6.03,5.99,0,*78
1505153215.66,40253,16.5,73398.5,7.03,5.81,5.81,0,*79
1505153216.88,40254,16.5,73380.0,7.03,5.51,5.45,0,*7B
1505153218.08,40255,16.5,73384.3,7.03,5.59,5.59,0,*7F
1505153219.33,40256,16.5,73394.8,7.03,5.77,5.81,0,*75
1505153220.58,40257,16.5,73394.3,6.99,5.85,5.85,0,*7F
1505153221.79,40258,16.56,73398.5,7.03,6.03,6.11,0,*71
1505153223.04,40259,16.56,73400.5,6.99,5.85,5.77,0,*7C
1505153224.29,40260,16.56,73404.0,7.03,5.81,5.89,0,*71
1505153225.5,40261,16.5,73408.0,7.03,5.99,5.99,0,*78
1505153226.71,40262,16.5,73410.8,6.99,5.95,5.95,0,*79
1505153227.92,40263,16.5,73412.3,6.99,5.99,5.99,0,*78
1505153229.12,40264,16.5,73414.0,6.99,5.99,5.95,0,*73
1505153230.33,40265,16.5,73412.8,7.03,6.03,6.11,0,*7F
1505153231.56,40266,16.5,73404.8,7.05,5.93,5.93,0,*79
1505153232.81,40267,16.56,73410.5,7.03,5.77,5.77,0,*7E
1505153234.03,40268,16.5,73404.5,7.05,5.77,5.81,0,*7E
1505153235.28,40269,16.5,73396.3,7.03,5.89,5.89,0,*70
1505153236.53,40270,16.56,73392.8,7.03,5.77,5.81,0,*71
1505153237.75,40271,16.56,73398.3,7.03,5.71,5.77,0,*7F
1505153238.98,40272,16.56,73404.3,6.99,5.63,5.55,0,*7D
1505153240.23,40273,16.5,73410.3,6.99,5.55,5.55,0,*79
1505153241.43,40274,16.5,73418.5,6.97,5.59,5.51,0,*78
1505153242.63,40275,16.5,73404.5,6.99,5.63,5.63,0,*7F
1505153243.86,40276,16.5,73388.8,6.99,5.67,5.77,0,*7D
1505153245.08,40277,16.56,73382.8,6.97,5.73,5.85,0,*7A
1505153246.28,40278,16.5,73394.3,6.97,6.03,5.93,0,*76
1505153247.49,40279,16.5,73404.0,6.97,6.03,6.13,0,*7C
1505153248.69,40280,16.5,73408.3,6.97,6.13,6.07,0,*7E
1505153249.89,40281,16.5,73412.3,6.99,6.11,6.07,0,*73
1505153251.09,40282,16.5,73408.0,6.99,6.07,6.11,0,*70
1505153252.3,40283,16.5,73412.3,6.99,5.99,5.99,0,*76
1505153253.51,40284,16.5,73410.0,6.99,5.99,5.99,0,*71
1505153254.77,40285,16.5,73408.0,6.99,5.89,5.89,0,*70
1505153255.99,40286,16.56,73414.5,6.97,5.73,5.73,0,*7D
1505153257.24,40287,16.56,73410.0,6.99,5.85,5.85,0,*72
1505153258.46,40288,16.5,73404.0,6.97,5.85,5.85,0,*73
1505153259.69,40289,16.5,73396.8,6.99,5.89,5.95,0,*71
1505153260.9,40290,16.5,73394.5,6.99,5.95,5.99,0,*78
1505153262.08,40291,16.5,73398.8,6.97,6.07,6.03,0,*7F
1505153263.33,40292,16.5,73406.8,6.99,6.17,6.17,0,*76
1505153264.51,40293,16.5,73406.3,6.97,6.11,6.11,0,*79
1505153265.74,40294,16.5,73400.8,6.99,5.95,5.93,0,*76
1505153266.98,40295,16.5,73398.5,6.99,5.77,5.85,0,*7C
1505153268.19,40296,16.5,73404.3,6.99,5.95,5.95,0,*72
1505153269.39,40297,16.5,73404.5,6.99,6.07,6.07,0,*73
1505153270.6,40298,16.56,73412.8,6.99,5.99,5.99,0,*7C
1505153271.8,40299,16.5,73404.8,6.99,6.07,6.07,0,*7D
1505153273.05,40300,16.5,73404.5,6.99,6.17,6.17,0,*7C
1505153274.26,40301,16.5,73398.8,6.99,6.11,6.11,0,*7D
1505153275.46,40302,16.5,73402.3,6.99,5.99,6.07,0,*7A
1505153276.69,40303,16.5,73402.5,7.03,5.99,5.93,0,*77
1505153277.94,40304,16.56,73392.5,7.03,5.81,5.89,0,*72
1505153279.19,40305,16.5,73394.8,7.03,5.77,5.81,0,*72
1505153280.37,40306,16.5,73394.8,6.97,6.03,5.95,0,*78
1505153281.55,40307,16.5,73390.0,6.97,5.95,6.03,0,*79
1505153282.8,40308,16.5,73388.0,7.03,6.13,6.13,0,*76
1505153284.01,40309,16.5,73394.0,6.99,6.07,5.99,0,*71
1505153285.21,40310,16.5,73398.0,6.99,5.95,5.95,0,*7D
1505153286.41,40311,16.5,73406.0,6.99,6.07,6.07,0,*7C
1505153287.62,40312,16.5,73392.0,6.99,5.95,5.95,0,*7F
1505153288.83,40313,16.5,73400.5,6.99,5.99,5.99,0,*7E
1505153290.02,40314,16.5,73396.0,6.97,6.03,6.03,0,*77
1505153291.25,40315,16.5,73396.8,6.99,6.17,6.11,0,*7E
1505153292.45,40316,16.5,73388.8,6.99,6.11,6.11,0,*7B
1505153293.66,40317,16.5,73392.3,6.99,6.11,6.11,0,*7A
1505153294.87,40318,16.56,73396.3,7.03,5.99,6.03,0,*77
1505153296.07,40319,16.5,73394.0,7.03,6.11,6.11,0,*76
1505153297.28,40320,16.5,73402.5,6.99,6.11,6.11,0,*7E
1505153298.49,40321,16.56,73404.3,6.99,6.11,6.11,0,*7F
1505153299.71,40322,16.5,73406.5,6.99,6.11,6.17,0,*7A
1505153300.92,40323,16.5,73408.8,7.03,6.25,6.21,0,*7B
1505153302.13,40324,16.5,73416.3,7.03,6.25,6.25,0,*78
1505153303.36,40325,16.5,73414.3,7.03,6.13,6.21,0,*78
1505153304.57,40326,16.5,73410.0,7.03,6.21,6.21,0,*7A
1505153305.8,40327,16.56,73414.3,7.03,6.13,6.21,0,*7A
1505153307.03,40328,16.5,73414.5,6.99,6.17,6.21,0,*73
1505153308.26,40329,16.5,73416.3,6.99,6.11,6.17,0,*71
1505153309.47,40330,16.5,73416.8,7.03,6.21,6.21,0,*7D
1505153310.7,40331,16.5,73418.8,7.03,6.21,6.13,0,*7D
1505153311.93,40332,16.5,73418.3,7.03,6.11,6.13,0,*7D
1505153313.11,40333,16.56,73422.0,7.05,6.11,6.21,0,*7B
1505153314.32,40334,16.56,73422.5,7.03,6.03,6.11,0,*7A
1505153315.53,40335,16.5,73416.0,6.99,5.95,5.99,0,*76
1505153316.78,40336,16.5,73412.3,7.03,5.93,5.93,0,*7B
1505153318.04,40337,16.5,73404.5,7.03,5.81,5.81,0,*7A
1505153319.28,40338,16.5,73398.5,7.03,5.77,5.77,0,*75
1505153320.53,40339,16.56,73376.0,7.03,5.93,5.93,0,*74
1505153321.73,40340,16.5,73362.5,6.99,6.07,6.07,0,*78
1505153322.98,40341,16.5,73374.5,7.03,6.13,6.13,0,*7B
1505153324.19,40342,16.5,73386.3,7.03,6.11,6.03,0,*7B
1505153325.4,40343,16.5,73386.3,6.99,5.95,5.95,0,*7B
1505153326.64,40344,16.5,73382.3,7.03,5.93,6.03,0,*74
1505153327.84,40345,16.5,73386.8,7.03,5.99,6.11,0,*7C
1505153329.05,40346,16.5,73394.3,6.99,5.99,6.07,0,*7A
1505153330.28,40347,16.56,73396.0,6.99,6.11,6.17,0,*79
1505153331.51,40348,16.5,73392.8,6.99,6.17,6.11,0,*76
1505153332.73,40349,16.5,73402.3,6.99,6.17,6.11,0,*77
1505153333.94,40350,16.5,73406.5,6.99,6.11,6.11,0,*79
1505153335.11,40351,16.5,73408.5,6.97,6.07,6.07,0,*76
1505153336.32,40352,16.5,73408.8,6.99,6.11,6.11,0,*7B
1505153337.52,40353,16.5,73410.3,6.99,6.07,6.11,0,*7D
1505153338.75,40354,16.5,73404.0,6.99,6.17,6.11,0,*7B
1505153340.0,40355,16.5,73400.8,7.03,6.13,6.13,0,*7E